SDM1029 ULMM-ULLI

Flight info

Callsign SDM1029
Flight time 1h 42m
Altitude 37000
Route ASGOR2P ASGOR T693 PILAN M856 KUKUM/K0848F380 M856 GIKUR T458 BEPOL BEPOL1B
Aircraft A319/M-RA73220/LB1

Departure

Time 2026-04-26 10:43
Airport Emperor Nicholas II Murmansk Airport (ULMM)

Arrival

Time 2026-04-26 12:26
Airport Pulkovo Airport (ULLI)
Time Latitude Longitude Altitude Speed Heading
2026-04-26 10:20 68.78416 32.75848 275 ft 0 kts 146°
2026-04-26 10:25 68.78416 32.75847 276 ft 0 kts 147°
2026-04-26 10:28 68.78417 32.75847 275 ft 0 kts 147°
2026-04-26 10:37 68.78416 32.75848 275 ft 1 kts 147°
2026-04-26 10:37 68.78409 32.75861 275 ft 3 kts 147°
2026-04-26 10:37 68.78379 32.75840 275 ft 8 kts 233°
2026-04-26 10:37 68.78428 32.75691 278 ft 9 kts 313°
2026-04-26 10:38 68.78421 32.75590 275 ft 9 kts 245°
2026-04-26 10:38 68.78386 32.75440 275 ft 10 kts 237°
2026-04-26 10:38 68.78345 32.75275 275 ft 11 kts 235°
2026-04-26 10:38 68.78299 32.75091 275 ft 13 kts 232°
2026-04-26 10:39 68.78222 32.75113 274 ft 13 kts 146°
2026-04-26 10:39 68.78142 32.75262 274 ft 15 kts 146°
2026-04-26 10:39 68.78052 32.75429 272 ft 16 kts 146°
2026-04-26 10:39 68.77961 32.75595 274 ft 15 kts 146°
2026-04-26 10:40 68.77871 32.75761 276 ft 16 kts 146°
2026-04-26 10:40 68.77772 32.75943 273 ft 18 kts 146°
2026-04-26 10:40 68.77667 32.76137 273 ft 18 kts 146°
2026-04-26 10:40 68.77562 32.76327 275 ft 18 kts 146°
2026-04-26 10:41 68.77457 32.76522 274 ft 19 kts 145°
2026-04-26 10:41 68.77436 32.76846 275 ft 18 kts 84°
2026-04-26 10:41 68.77419 32.77146 275 ft 16 kts 142°
2026-04-26 10:41 68.77322 32.77216 275 ft 15 kts 218°
2026-04-26 10:42 68.77268 32.76967 275 ft 15 kts 253°
2026-04-26 10:42 68.77310 32.76795 273 ft 0 kts 328°
2026-04-26 10:42 68.77323 32.76772 274 ft 9 kts 326°
2026-04-26 10:42 68.77614 32.76235 273 ft 96 kts 326°
2026-04-26 10:43 68.78393 32.74795 337 ft 163 kts 326°
2026-04-26 10:43 68.79383 32.72948 1001 ft 177 kts 324°
2026-04-26 10:43 68.80419 32.70937 1847 ft 186 kts 323°
2026-04-26 10:43 68.81516 32.68773 2549 ft 204 kts 325°
2026-04-26 10:44 68.82737 32.66474 3320 ft 217 kts 326°
2026-04-26 10:44 68.84002 32.64126 4335 ft 221 kts 326°
2026-04-26 10:44 68.85302 32.61729 5290 ft 227 kts 326°
2026-04-26 10:44 68.86609 32.59304 6276 ft 231 kts 326°
2026-04-26 10:45 68.87685 32.56016 7221 ft 238 kts 295°
2026-04-26 10:45 68.87867 32.51321 7899 ft 262 kts 260°
2026-04-26 10:45 68.87106 32.46578 8744 ft 276 kts 240°
2026-04-26 10:45 68.85961 32.42227 9730 ft 282 kts 234°
2026-04-26 10:46 68.84550 32.38319 10504 ft 296 kts 214°
2026-04-26 10:46 68.82558 32.36681 11327 ft 308 kts 181°
2026-04-26 10:46 68.80456 32.37891 12237 ft 313 kts 156°
2026-04-26 10:46 68.78581 32.41002 13157 ft 317 kts 144°
2026-04-26 10:47 68.76755 32.44478 14002 ft 321 kts 145°
2026-04-26 10:47 68.74895 32.47927 14828 ft 324 kts 146°
2026-04-26 10:47 68.73007 32.51391 15651 ft 327 kts 146°
2026-04-26 10:47 68.71103 32.54887 16474 ft 331 kts 145°
2026-04-26 10:48 68.69180 32.58429 17291 ft 334 kts 145°
2026-04-26 10:48 68.67165 32.61694 18082 ft 339 kts 154°
2026-04-26 10:48 68.64906 32.64124 18261 ft 360 kts 160°
2026-04-26 10:48 68.62493 32.66431 18661 ft 372 kts 161°
2026-04-26 10:49 68.60030 32.68759 19263 ft 377 kts 161°
2026-04-26 10:49 68.57543 32.71103 19910 ft 380 kts 161°
2026-04-26 10:49 68.55027 32.73474 20570 ft 384 kts 160°
2026-04-26 10:49 68.52449 32.75513 21214 ft 388 kts 168°
2026-04-26 10:50 68.49759 32.76377 21863 ft 392 kts 179°
2026-04-26 10:50 68.47944 32.76285 22290 ft 394 kts 183°
2026-04-26 10:50 68.44289 32.75855 23122 ft 400 kts 182°
2026-04-26 10:50 68.41494 32.75563 23644 ft 404 kts 182°
2026-04-26 10:51 68.38669 32.75451 24128 ft 407 kts 180°
2026-04-26 10:51 68.32956 32.75623 25133 ft 412 kts 179°
2026-04-26 10:51 68.30083 32.75770 25635 ft 414 kts 179°
2026-04-26 10:52 68.27190 32.75893 26108 ft 417 kts 180°
2026-04-26 10:52 68.24280 32.75982 26540 ft 420 kts 180°
2026-04-26 10:52 68.21332 32.76037 26891 ft 425 kts 180°
2026-04-26 10:52 68.18369 32.76068 27321 ft 429 kts 181°
2026-04-26 10:53 68.15376 32.76088 27729 ft 432 kts 181°
2026-04-26 10:53 68.12365 32.76114 28225 ft 433 kts 181°
2026-04-26 10:53 68.09348 32.76153 28657 ft 435 kts 181°
2026-04-26 10:54 68.03248 32.76250 29420 ft 441 kts 181°
2026-04-26 10:54 68.00173 32.76300 29838 ft 443 kts 181°
2026-04-26 10:54 67.97084 32.76346 30112 ft 445 kts 181°
2026-04-26 10:54 67.93971 32.76419 30387 ft 448 kts 180°
2026-04-26 10:55 67.90849 32.76526 30674 ft 450 kts 180°
2026-04-26 10:55 67.87707 32.76663 30926 ft 453 kts 181°
2026-04-26 10:55 67.84549 32.76816 31200 ft 455 kts 180°
2026-04-26 10:55 67.81424 32.76968 31487 ft 456 kts 180°
2026-04-26 10:56 67.78258 32.77120 31860 ft 455 kts 180°
2026-04-26 10:56 67.75090 32.77263 32211 ft 455 kts 180°
2026-04-26 10:56 67.71927 32.77389 32553 ft 455 kts 180°
2026-04-26 10:56 67.68758 32.77506 32882 ft 455 kts 181°
2026-04-26 10:57 67.65589 32.77616 33210 ft 455 kts 181°
2026-04-26 10:57 67.62421 32.77721 33522 ft 455 kts 180°
2026-04-26 10:57 67.59254 32.77831 33787 ft 455 kts 180°
2026-04-26 10:57 67.56084 32.77946 33994 ft 456 kts 181°
2026-04-26 10:58 67.52909 32.78065 34194 ft 456 kts 181°
2026-04-26 10:58 67.49733 32.78184 34393 ft 456 kts 181°
2026-04-26 10:58 67.46560 32.78304 34595 ft 456 kts 180°
2026-04-26 10:58 67.43387 32.78444 34787 ft 456 kts 180°
2026-04-26 10:59 67.40218 32.78662 34968 ft 456 kts 180°
2026-04-26 10:59 67.37047 32.78932 35158 ft 455 kts 179°
2026-04-26 10:59 67.33879 32.79231 35317 ft 455 kts 179°
2026-04-26 10:59 67.30713 32.79537 35478 ft 455 kts 179°
2026-04-26 11:00 67.27590 32.79833 35628 ft 455 kts 179°
2026-04-26 11:00 67.24428 32.80117 35808 ft 454 kts 179°
2026-04-26 11:00 67.21275 32.80385 35961 ft 453 kts 179°
2026-04-26 11:00 67.18128 32.80640 36100 ft 453 kts 179°
2026-04-26 11:01 67.14970 32.80890 36232 ft 453 kts 180°
2026-04-26 11:01 67.11820 32.81140 36361 ft 452 kts 180°
2026-04-26 11:01 67.08678 32.81385 36497 ft 452 kts 179°
2026-04-26 11:01 67.05536 32.81629 36646 ft 451 kts 179°
2026-04-26 11:02 66.99271 32.82124 36723 ft 449 kts 179°
2026-04-26 11:02 66.93045 32.82626 36728 ft 447 kts 180°
2026-04-26 11:03 66.86827 32.83113 36727 ft 448 kts 179°
2026-04-26 11:03 66.80597 32.83597 36716 ft 447 kts 180°
2026-04-26 11:04 66.74365 32.84091 36723 ft 449 kts 179°
2026-04-26 11:04 66.68128 32.84616 36717 ft 448 kts 179°
2026-04-26 11:05 66.61894 32.85276 36717 ft 448 kts 179°
2026-04-26 11:05 66.55709 32.85994 36716 ft 447 kts 178°
2026-04-26 11:06 66.49491 32.86674 36713 ft 447 kts 178°
2026-04-26 11:06 66.43275 32.87313 36715 ft 447 kts 179°
2026-04-26 11:07 66.37069 32.87928 36702 ft 446 kts 179°
2026-04-26 11:07 66.30859 32.88354 36701 ft 446 kts 180°
2026-04-26 11:08 66.24646 32.88660 36699 ft 447 kts 180°
2026-04-26 11:08 66.18430 32.89002 36699 ft 447 kts 180°
2026-04-26 11:09 66.12215 32.89382 36690 ft 447 kts 179°
2026-04-26 11:09 66.06001 32.89773 36694 ft 446 kts 180°
2026-04-26 11:10 65.99795 32.90151 36695 ft 446 kts 180°
2026-04-26 11:10 65.93591 32.90527 36695 ft 446 kts 180°
2026-04-26 11:11 65.87385 32.90909 36692 ft 446 kts 180°
2026-04-26 11:11 65.81183 32.91284 36693 ft 446 kts 180°
2026-04-26 11:12 65.74980 32.91636 36690 ft 446 kts 180°
2026-04-26 11:12 65.68781 32.91524 36687 ft 445 kts 183°
2026-04-26 11:13 65.62629 32.91046 36678 ft 445 kts 184°
2026-04-26 11:13 65.56427 32.90606 36672 ft 446 kts 182°
2026-04-26 11:14 65.50225 32.90307 36683 ft 445 kts 182°
2026-04-26 11:14 65.45076 32.90091 36677 ft 445 kts 182°
2026-04-26 11:15 65.37836 32.89740 36679 ft 445 kts 183°
2026-04-26 11:15 65.31656 32.89411 36676 ft 444 kts 182°
2026-04-26 11:16 65.25471 32.89102 36668 ft 444 kts 182°
2026-04-26 11:16 65.19328 32.88796 36659 ft 445 kts 182°
2026-04-26 11:17 65.13125 32.88488 36658 ft 445 kts 182°
2026-04-26 11:17 65.06929 32.88201 36658 ft 445 kts 182°
2026-04-26 11:18 65.00730 32.87890 36661 ft 445 kts 183°
2026-04-26 11:18 64.94540 32.87595 36651 ft 445 kts 183°
2026-04-26 11:19 64.88354 32.87297 36650 ft 444 kts 182°
2026-04-26 11:19 64.82170 32.87006 36651 ft 444 kts 182°
2026-04-26 11:20 64.77029 32.86754 36647 ft 445 kts 182°
2026-04-26 11:20 64.69796 32.86411 36642 ft 445 kts 182°
2026-04-26 11:21 64.63651 32.86124 36639 ft 445 kts 182°
2026-04-26 11:21 64.57466 32.85830 36643 ft 444 kts 183°
2026-04-26 11:22 64.51275 32.85540 36620 ft 444 kts 182°
2026-04-26 11:22 64.45099 32.85253 36620 ft 444 kts 182°
2026-04-26 11:23 64.38913 32.84950 36623 ft 445 kts 182°
2026-04-26 11:23 64.32724 32.84684 36627 ft 445 kts 182°
2026-04-26 11:24 64.26575 32.84417 36625 ft 445 kts 182°
2026-04-26 11:24 64.20381 32.84126 36620 ft 445 kts 183°
2026-04-26 11:25 64.14190 32.83830 36622 ft 445 kts 183°
2026-04-26 11:25 64.08007 32.83559 36614 ft 444 kts 182°
2026-04-26 11:26 64.01825 32.83297 36614 ft 444 kts 183°
2026-04-26 11:26 63.95638 32.83025 36611 ft 445 kts 182°
2026-04-26 11:27 63.89452 32.82740 36602 ft 445 kts 182°
2026-04-26 11:27 63.83259 32.82445 36606 ft 445 kts 183°
2026-04-26 11:28 63.77070 32.82186 36588 ft 445 kts 182°
2026-04-26 11:28 63.70886 32.81874 36592 ft 444 kts 184°
2026-04-26 11:29 63.65763 32.81189 36588 ft 444 kts 185°
2026-04-26 11:29 63.59600 32.80092 36588 ft 444 kts 185°
2026-04-26 11:30 63.53435 32.79080 36582 ft 444 kts 185°
2026-04-26 11:30 63.47268 32.78271 36580 ft 444 kts 184°
2026-04-26 11:31 63.41089 32.77628 36574 ft 444 kts 184°
2026-04-26 11:31 63.34916 32.76962 36564 ft 444 kts 184°
2026-04-26 11:32 63.28742 32.76239 36555 ft 444 kts 184°
2026-04-26 11:32 63.22567 32.75517 36551 ft 445 kts 184°
2026-04-26 11:33 63.16426 32.74795 36555 ft 445 kts 184°
2026-04-26 11:33 63.10249 32.74071 36552 ft 444 kts 184°
2026-04-26 11:34 63.04069 32.73364 36543 ft 444 kts 184°
2026-04-26 11:34 62.97894 32.72718 36546 ft 444 kts 183°
2026-04-26 11:35 62.91708 32.72524 36542 ft 445 kts 181°
2026-04-26 11:35 62.85514 32.72511 36550 ft 445 kts 181°
2026-04-26 11:36 62.79322 32.72384 36528 ft 445 kts 182°
2026-04-26 11:36 62.73172 32.71965 36521 ft 445 kts 183°
2026-04-26 11:37 62.66978 32.71454 36516 ft 445 kts 183°
2026-04-26 11:37 62.60781 32.70988 36502 ft 446 kts 182°
2026-04-26 11:38 62.54585 32.70582 36512 ft 445 kts 182°
2026-04-26 11:38 62.48394 32.70203 36509 ft 445 kts 182°
2026-04-26 11:39 62.42203 32.69793 36508 ft 445 kts 182°
2026-04-26 11:39 62.36006 32.69361 36492 ft 445 kts 182°
2026-04-26 11:40 62.29803 32.68961 36488 ft 446 kts 182°
2026-04-26 11:40 62.23603 32.68571 36484 ft 446 kts 182°
2026-04-26 11:42 61.98824 32.66979 36461 ft 446 kts 182°
2026-04-26 11:43 61.92612 32.66592 36454 ft 446 kts 182°
2026-04-26 11:43 61.86404 32.66201 36447 ft 446 kts 182°
2026-04-26 11:44 61.80193 32.65753 36444 ft 446 kts 182°
2026-04-26 11:44 61.73987 32.65254 36444 ft 446 kts 183°
2026-04-26 11:45 61.67775 32.64764 36416 ft 447 kts 182°
2026-04-26 11:45 61.61565 32.64306 36417 ft 447 kts 182°
2026-04-26 11:46 61.55386 32.63865 36410 ft 447 kts 182°
2026-04-26 11:46 61.49168 32.63421 36412 ft 447 kts 182°
2026-04-26 11:47 61.42953 32.62964 36405 ft 447 kts 182°
2026-04-26 11:47 61.36746 32.62490 36404 ft 446 kts 183°
2026-04-26 11:48 61.30545 32.62034 36401 ft 446 kts 182°
2026-04-26 11:48 61.24331 32.61551 36380 ft 448 kts 184°
2026-04-26 11:49 61.21214 32.61176 36018 ft 451 kts 184°
2026-04-26 11:49 61.18055 32.60724 34567 ft 461 kts 185°
2026-04-26 11:49 61.14831 32.60219 33521 ft 464 kts 185°
2026-04-26 11:49 61.11628 32.59715 32949 ft 459 kts 185°
2026-04-26 11:50 61.08464 32.59230 32424 ft 453 kts 184°
2026-04-26 11:50 61.05347 32.58783 31878 ft 447 kts 184°
2026-04-26 11:50 61.02280 32.58372 31685 ft 432 kts 184°
2026-04-26 11:50 60.99340 32.57988 31465 ft 417 kts 184°
2026-04-26 11:51 60.96481 32.57617 31014 ft 408 kts 184°
2026-04-26 11:51 60.93670 32.57236 30379 ft 401 kts 184°
2026-04-26 11:51 60.90903 32.56840 29739 ft 396 kts 183°
2026-04-26 11:51 60.88177 32.56441 29035 ft 391 kts 182°
2026-04-26 11:52 60.85477 32.56045 28509 ft 387 kts 183°
2026-04-26 11:52 60.83702 32.55784 28240 ft 386 kts 183°
2026-04-26 11:52 60.80130 32.55263 27680 ft 383 kts 183°
2026-04-26 11:52 60.77483 32.54881 27270 ft 380 kts 183°
2026-04-26 11:53 60.74884 32.54515 26869 ft 378 kts 182°
2026-04-26 11:53 60.72265 32.54119 26467 ft 377 kts 185°
2026-04-26 11:53 60.69685 32.53211 26058 ft 375 kts 189°
2026-04-26 11:54 60.64569 32.51252 25241 ft 372 kts 188°
2026-04-26 11:54 60.62027 32.50278 24816 ft 371 kts 188°
2026-04-26 11:54 60.59508 32.49317 24552 ft 365 kts 188°
2026-04-26 11:54 60.56995 32.48359 24037 ft 368 kts 188°
2026-04-26 11:55 60.54512 32.47408 23822 ft 359 kts 187°
2026-04-26 11:55 60.52069 32.46469 23371 ft 355 kts 187°
2026-04-26 11:55 60.49656 32.45546 22880 ft 352 kts 187°
2026-04-26 11:55 60.47255 32.44636 22249 ft 351 kts 187°
2026-04-26 11:56 60.44868 32.43740 21798 ft 348 kts 187°
2026-04-26 11:56 60.42491 32.42852 21379 ft 346 kts 187°
2026-04-26 11:56 60.40131 32.41970 20972 ft 344 kts 187°
2026-04-26 11:56 60.37785 32.41094 20585 ft 342 kts 187°
2026-04-26 11:57 60.35473 32.40229 20174 ft 342 kts 188°
2026-04-26 11:57 60.33127 32.39353 19776 ft 341 kts 189°
2026-04-26 11:57 60.30798 32.38481 19380 ft 340 kts 189°
2026-04-26 11:57 60.28476 32.37608 18985 ft 338 kts 189°
2026-04-26 11:58 60.26170 32.36740 18661 ft 334 kts 189°
2026-04-26 11:58 60.23939 32.35900 18530 ft 317 kts 189°
2026-04-26 11:58 60.21828 32.35109 18349 ft 302 kts 188°
2026-04-26 11:58 60.19787 32.34349 17947 ft 296 kts 188°
2026-04-26 11:59 60.17775 32.33599 17474 ft 293 kts 189°
2026-04-26 11:59 60.15785 32.32861 17005 ft 288 kts 188°
2026-04-26 11:59 60.13838 32.32145 16570 ft 282 kts 189°
2026-04-26 11:59 60.11934 32.31332 16145 ft 279 kts 199°
2026-04-26 12:00 60.10319 32.29248 15735 ft 279 kts 227°
2026-04-26 12:00 60.09376 32.25914 15381 ft 276 kts 257°
2026-04-26 12:00 60.09354 32.22099 15357 ft 277 kts 285°
2026-04-26 12:00 60.10220 32.18715 15356 ft 274 kts 315°
2026-04-26 12:01 60.11751 32.16575 15361 ft 269 kts 343°
2026-04-26 12:01 60.13574 32.16162 15360 ft 264 kts 11°
2026-04-26 12:01 60.15253 32.17535 15360 ft 262 kts 36°
2026-04-26 12:01 60.16740 32.19785 15364 ft 277 kts 39°
2026-04-26 12:02 60.18268 32.22257 15360 ft 285 kts 40°
2026-04-26 12:02 60.19289 32.23926 15361 ft 286 kts 40°
2026-04-26 12:02 60.21355 32.27324 15361 ft 287 kts 40°
2026-04-26 12:02 60.22879 32.29839 15361 ft 287 kts 40°
2026-04-26 12:03 60.24419 32.32390 15361 ft 287 kts 40°
2026-04-26 12:03 60.25960 32.34952 15368 ft 287 kts 41°
2026-04-26 12:03 60.27240 32.37994 15367 ft 286 kts 62°
2026-04-26 12:03 60.27844 32.41797 15369 ft 287 kts 84°
2026-04-26 12:04 60.27644 32.45790 15366 ft 290 kts 107°
2026-04-26 12:04 60.26647 32.49310 15379 ft 292 kts 131°
2026-04-26 12:04 60.25027 32.51731 15370 ft 292 kts 155°
2026-04-26 12:04 60.23049 32.52636 15371 ft 294 kts 179°
2026-04-26 12:05 60.21044 32.51844 15366 ft 298 kts 202°
2026-04-26 12:05 60.19300 32.49589 15371 ft 300 kts 216°
2026-04-26 12:05 60.17643 32.47041 15366 ft 300 kts 217°
2026-04-26 12:05 60.15993 32.44483 15363 ft 300 kts 216°
2026-04-26 12:06 60.14341 32.41919 15306 ft 301 kts 216°
2026-04-26 12:06 60.12687 32.39370 15030 ft 298 kts 217°
2026-04-26 12:06 60.11045 32.36851 14758 ft 294 kts 216°
2026-04-26 12:06 60.09440 32.34398 14493 ft 286 kts 216°
2026-04-26 12:07 60.07900 32.31952 14236 ft 279 kts 221°
2026-04-26 12:07 60.06604 32.29115 13980 ft 274 kts 234°
2026-04-26 12:07 60.05613 32.25907 13725 ft 270 kts 244°
2026-04-26 12:07 60.04928 32.22432 13469 ft 268 kts 252°
2026-04-26 12:08 60.04337 32.18900 13225 ft 267 kts 251°
2026-04-26 12:08 60.03740 32.15389 12942 ft 266 kts 251°
2026-04-26 12:08 60.03142 32.11902 12662 ft 266 kts 252°
2026-04-26 12:08 60.02539 32.08398 12384 ft 266 kts 252°
2026-04-26 12:09 60.01935 32.04892 12112 ft 266 kts 251°
2026-04-26 12:09 60.01330 32.01400 11835 ft 266 kts 251°
2026-04-26 12:09 60.00720 31.97924 11565 ft 263 kts 251°
2026-04-26 12:09 60.00112 31.94483 11299 ft 262 kts 250°
2026-04-26 12:10 59.99505 31.91056 11031 ft 260 kts 250°
2026-04-26 12:10 59.98902 31.87663 10768 ft 259 kts 250°
2026-04-26 12:10 59.98299 31.84279 10507 ft 258 kts 250°
2026-04-26 12:10 59.97707 31.80959 10254 ft 257 kts 250°
2026-04-26 12:11 59.97110 31.77613 9996 ft 256 kts 249°
2026-04-26 12:11 59.96513 31.74273 9741 ft 254 kts 249°
2026-04-26 12:11 59.95919 31.70956 9492 ft 253 kts 249°
2026-04-26 12:11 59.95327 31.67664 9354 ft 252 kts 249°
2026-04-26 12:12 59.94737 31.64382 9355 ft 252 kts 249°
2026-04-26 12:12 59.94146 31.61097 9356 ft 252 kts 249°
2026-04-26 12:12 59.93548 31.57769 9357 ft 252 kts 248°
2026-04-26 12:12 59.93156 31.55592 9364 ft 252 kts 249°
2026-04-26 12:13 59.92373 31.51261 9361 ft 249 kts 252°
2026-04-26 12:13 59.91785 31.48024 9360 ft 248 kts 252°
2026-04-26 12:13 59.91197 31.44795 9338 ft 248 kts 252°
2026-04-26 12:13 59.90608 31.41563 9212 ft 248 kts 251°
2026-04-26 12:14 59.90022 31.38345 9052 ft 247 kts 252°
2026-04-26 12:14 59.89437 31.35136 8768 ft 246 kts 251°
2026-04-26 12:14 59.88853 31.31942 8441 ft 245 kts 252°
2026-04-26 12:14 59.88271 31.28756 8098 ft 244 kts 252°
2026-04-26 12:15 59.87691 31.25586 7771 ft 243 kts 251°
2026-04-26 12:15 59.87111 31.22426 7444 ft 242 kts 252°
2026-04-26 12:15 59.86536 31.19301 7114 ft 241 kts 251°
2026-04-26 12:15 59.85962 31.16194 6915 ft 236 kts 251°
2026-04-26 12:16 59.85401 31.13164 6567 ft 233 kts 251°
2026-04-26 12:16 59.84844 31.10137 6158 ft 233 kts 251°
2026-04-26 12:16 59.84282 31.07083 5692 ft 237 kts 255°
2026-04-26 12:16 59.83708 31.03959 5288 ft 242 kts 255°
2026-04-26 12:17 59.83124 31.00797 4907 ft 245 kts 255°
2026-04-26 12:17 59.82735 30.98710 4796 ft 239 kts 255°
2026-04-26 12:17 59.82169 30.95708 4595 ft 227 kts 255°
2026-04-26 12:17 59.81621 30.92801 4238 ft 224 kts 256°
2026-04-26 12:18 59.81077 30.89902 3823 ft 224 kts 257°
2026-04-26 12:18 59.80535 30.87014 3437 ft 223 kts 258°
2026-04-26 12:18 59.79994 30.84124 2998 ft 224 kts 258°
2026-04-26 12:18 59.79453 30.81230 2664 ft 219 kts 259°
2026-04-26 12:19 59.78923 30.78433 2593 ft 216 kts 261°
2026-04-26 12:19 59.78400 30.75647 2528 ft 215 kts 261°
2026-04-26 12:19 59.77880 30.72863 2452 ft 215 kts 260°
2026-04-26 12:19 59.77358 30.70105 2363 ft 212 kts 260°
2026-04-26 12:20 59.76840 30.67370 2393 ft 212 kts 260°
2026-04-26 12:20 59.76321 30.64626 2386 ft 212 kts 260°
2026-04-26 12:20 59.75802 30.61885 2390 ft 212 kts 260°
2026-04-26 12:20 59.75288 30.59185 2409 ft 201 kts 260°
2026-04-26 12:21 59.74963 30.56753 2379 ft 164 kts 279°
2026-04-26 12:21 59.75049 30.54739 2374 ft 134 kts 300°
2026-04-26 12:21 59.75300 30.53056 2394 ft 123 kts 302°
2026-04-26 12:21 59.75542 30.51464 2389 ft 119 kts 302°
2026-04-26 12:22 59.75780 30.49903 2342 ft 118 kts 302°
2026-04-26 12:22 59.76015 30.48355 2231 ft 117 kts 301°
2026-04-26 12:22 59.76249 30.46807 2091 ft 117 kts 301°
2026-04-26 12:22 59.76482 30.45269 1935 ft 116 kts 301°
2026-04-26 12:23 59.76714 30.43733 1817 ft 116 kts 300°
2026-04-26 12:23 59.76942 30.42216 1657 ft 117 kts 298°
2026-04-26 12:23 59.77175 30.40671 1490 ft 117 kts 297°
2026-04-26 12:23 59.77408 30.39125 1328 ft 117 kts 297°
2026-04-26 12:24 59.77640 30.37580 1160 ft 116 kts 295°
2026-04-26 12:24 59.77875 30.36016 978 ft 121 kts 294°
2026-04-26 12:24 59.78113 30.34429 786 ft 120 kts 291°
2026-04-26 12:25 59.78584 30.31289 465 ft 119 kts 291°
2026-04-26 12:25 59.78820 30.29701 280 ft 120 kts 289°
2026-04-26 12:25 59.79057 30.28116 106 ft 118 kts 290°
2026-04-26 12:25 59.79253 30.26864 89 ft 56 kts 286°
2026-04-26 12:26 59.79311 30.26437 85 ft 24 kts 289°
2026-04-26 12:26 59.79398 30.26392 83 ft 8 kts 25°
2026-04-26 12:26 59.79419 30.26403 83 ft 0 kts 14°
2026-04-26 12:28 59.79479 30.26407 85 ft 11 kts 334°
2026-04-26 12:28 59.79541 30.26367 84 ft 9 kts 17°
2026-04-26 12:28 59.79605 30.26405 84 ft 11 kts 17°
2026-04-26 12:28 59.79681 30.26450 86 ft 11 kts 16°
2026-04-26 12:29 59.79750 30.26490 84 ft 8 kts 16°
2026-04-26 12:29 59.79790 30.26541 86 ft 6 kts 85°
2026-04-26 12:29 59.79787 30.26682 81 ft 2 kts 95°
2026-04-26 12:30 59.79786 30.26690 81 ft 0 kts 94°